TimeCST,TemperatureF,Dew PointF,Humidity,Sea Level PressureIn,VisibilityMPH,Wind Direction,Wind SpeedMPH,Gust SpeedMPH,PrecipitationIn,Events,Conditions,WindDirDegrees,DateUTC
12:53 AM,37.9,35.1,89,29.80,5.0,WNW,12.7,-,N/A,,Overcast,290,2012-12-18 06:53:00
1:06 AM,37.4,33.8,87,29.80,5.0,WNW,12.7,-,N/A,,Overcast,290,2012-12-18 07:06:00
1:16 AM,37.4,33.8,87,29.80,5.0,WNW,12.7,-,N/A,,Overcast,290,2012-12-18 07:16:00
1:53 AM,37.9,34.0,86,29.83,4.0,WNW,9.2,-,N/A,,Overcast,300,2012-12-18 07:53:00
2:22 AM,37.4,33.8,87,29.82,4.0,WNW,9.2,-,N/A,,Overcast,290,2012-12-18 08:22:00
2:53 AM,37.9,34.0,86,29.83,4.0,WNW,9.2,-,N/A,,Overcast,290,2012-12-18 08:53:00
3:53 AM,37.9,33.1,83,29.84,5.0,WNW,9.2,-,N/A,,Haze,300,2012-12-18 09:53:00
5:53 AM,37.0,33.1,86,29.86,5.0,Calm,Calm,-,N/A,,Overcast,0,2012-12-18 11:53:00
6:53 AM,37.0,32.0,82,29.87,5.0,SW,6.9,-,N/A,,Haze,220,2012-12-18 12:53:00
7:25 AM,37.4,32.0,81,29.87,5.0,Calm,Calm,-,N/A,,Haze,0,2012-12-18 13:25:00
7:53 AM,37.0,32.0,82,29.88,4.0,SSW,4.6,-,N/A,,Haze,200,2012-12-18 13:53:00
8:53 AM,37.9,33.1,83,29.90,4.0,South,9.2,-,N/A,,Haze,190,2012-12-18 14:53:00
9:29 AM,39.2,33.8,81,29.89,4.0,South,9.2,-,N/A,,Haze,190,2012-12-18 15:29:00
9:53 AM,39.9,34.0,79,29.89,4.0,South,11.5,-,N/A,,Haze,190,2012-12-18 15:53:00
10:26 AM,41.0,33.8,76,29.88,4.0,South,12.7,-,N/A,,Haze,170,2012-12-18 16:26:00
10:53 AM,42.1,35.1,76,29.88,4.0,South,15.0,-,N/A,,Haze,170,2012-12-18 16:53:00
11:53 AM,44.1,37.0,76,29.85,5.0,South,15.0,-,N/A,,Haze,170,2012-12-18 17:53:00
12:04 PM,44.6,37.4,76,29.83,6.0,South,17.3,-,N/A,,Haze,170,2012-12-18 18:04:00
12:53 PM,46.9,37.9,71,29.82,6.0,South,16.1,-,N/A,,Haze,180,2012-12-18 18:53:00
1:53 PM,50.0,37.9,63,29.76,8.0,South,20.7,24.2,N/A,,Clear,170,2012-12-18 19:53:00
2:53 PM,51.1,37.9,61,29.74,9.0,South,20.7,28.8,N/A,,Clear,180,2012-12-18 20:53:00
3:53 PM,51.1,37.9,61,29.71,10.0,South,16.1,-,N/A,,Clear,190,2012-12-18 21:53:00
4:53 PM,48.9,37.0,64,29.71,10.0,SSW,12.7,-,N/A,,Clear,200,2012-12-18 22:53:00
5:53 PM,46.9,36.0,66,29.75,10.0,SW,10.4,-,N/A,,Clear,220,2012-12-18 23:53:00
6:53 PM,46.0,36.0,68,29.76,10.0,SSW,11.5,-,N/A,,Clear,210,2012-12-19 00:53:00
7:53 PM,48.0,37.9,68,29.78,10.0,SW,17.3,-,N/A,,Clear,220,2012-12-19 01:53:00
8:53 PM,48.0,39.0,71,29.81,9.0,WSW,11.5,21.9,N/A,,Clear,240,2012-12-19 02:53:00
9:53 PM,48.0,39.9,74,29.82,8.0,WSW,15.0,-,N/A,,Clear,240,2012-12-19 03:53:00
10:53 PM,46.9,39.0,74,29.88,9.0,WNW,13.8,-,N/A,,Clear,290,2012-12-19 04:53:00
11:53 PM,39.9,32.0,73,29.92,7.0,NNW,12.7,-,N/A,,Clear,340,2012-12-19 05:53:00